Location: Oshawa
(43.9000°N, 78.8670°W)
Time: 14:00:17
(UTC-05:00)

Cosmos 1408 Rocket - Visible Passes

Search period start: 02 March 2015 00:00
Search period end: 12 March 2015 01:00
Orbit: 603 x 631 km, 82.6° (Epoch: 02 March)

Date Brightness Start Highest point End Pass type
(mag) Time Alt. Az. Time Alt. Az. Time Alt. Az.
02 Mar 4.9 20:32:25 10° N 20:34:50 32° N 20:34:50 32° N visible
03 Mar 5.3 19:12:47 10° NNE 19:15:02 15° ENE 19:15:02 15° ENE visible
03 Mar 4.9 20:49:18 10° NNW 20:52:11 36° NW 20:52:11 36° NW visible
04 Mar 4.6 19:28:44 10° NNE 19:32:29 26° ENE 19:32:29 26° ENE visible
04 Mar 5.5 21:06:25 10° NNW 21:09:39 28° WNW 21:09:39 28° WNW visible
05 Mar 3.8 19:45:08 10° N 19:49:26 45° ENE 19:50:03 43° ESE visible
05 Mar 6.2 21:24:00 10° NW 21:26:57 17° W 21:27:14 17° W visible
06 Mar 3.4 20:01:47 10° N 20:06:17 83° E 20:07:46 42° SSE visible
07 Mar 5.2 18:42:09 10° NNE 18:44:45 15° ENE 18:47:30 10° ESE visible
07 Mar 4.3 20:18:39 10° NNW 20:23:01 53° W 20:25:40 22° SSW visible
08 Mar 4.6 19:58:06 10° NNE 20:01:50 26° ENE 20:05:36 10° SE visible
08 Mar 5.4 21:35:47 10° NNW 21:39:42 29° W 21:43:30 10° SSW visible
09 Mar 3.9 20:14:29 10° N 20:18:47 45° ENE 20:23:03 10° SSE visible
09 Mar 6.3 21:53:21 10° NW 21:56:18 17° W 21:59:04 10° SW visible
10 Mar 3.5 20:31:09 10° N 20:35:38 83° E 20:40:03 10° S visible
11 Mar 4.4 20:48:00 10° NNW 20:52:22 53° W 20:56:40 10° S visible
